Theta_e
314 314 314 313 311 309 307 318 310 321 321 309 312 312 316 311 321 327 324 323 321 319 318 320 320 321 323 330 330 323 329 324 314 321 323 325 322 319 317 311 311 312 311 313
314 314 313 312 310 309 318 316 317 320 318 304 309 315 315 318 319 323 322 321 323 323 318 317 321 322 328 330 329 322 327 322 315 317 316 321 319 317 318 316 316 312 309 314
314 314 314 312 311 310 314 318 308 313 314 314 311 312 313 314 320 320 322 321 325 322 318 323 319 322 327 327 328 331 329 322 319 312 315 318 313 314 316 316 311 313 313 319
313 314 314 313 311 310 313 316 311 313 305 308 312 315 315 312 313 320 321 319 321 319 317 316 317 321 325 328 329 329 327 316 320 321 318 316 314 313 314 314 316 313 316 315
313 313 314 313 311 309 316 312 317 316 313 311 311 308 314 313 315 317 316 317 321 321 315 317 318 319 322 322 330 327 327 320 318 316 314 315 313 316 315 315 316 317 317 318
314 313 313 313 311 310 316 323 324 322 309 309 310 312 314 314 318 320 321 321 321 320 321 325 326 326 325 326 329 327 323 321 318 312 315 313 311 316 317 318 319 319 316 323
314 314 313 313 311 310 313 316 319 321 312 313 308 310 313 312 317 320 319 320 320 326 328 327 326 327 327 327 327 331 325 322 318 313 315 302 315 321 320 318 320 322 322 325
313 313 314 313 312 310 313 317 317 320 315 319 314 311 314 316 316 318 320 322 323 330 327 318 318 320 321 321 325 327 328 323 314 311 308 313 316 318 318 319 319 323 324 325
312 312 313 314 311 310 315 318 319 319 315 316 315 316 316 316 316 318 318 323 321 321 318 314 310 309 314 314 316 325 326 325 318 312 309 308 318 323 325 324 316 324 326 325
311 312 312 313 312 310 311 320 320 320 316 319 316 315 316 319 319 320 321 315 320 323 316 313 310 310 316 313 314 315 318 320 316 316 312 317 323 324 326 314 318 324 326 326
311 311 312 312 312 311 312 319 324 320 318 319 319 317 315 317 318 318 320 318 320 320 317 315 314 315 315 316 319 319 318 316 315 317 314 310 326 324 320 327 329 327 327 327
310 311 311 312 312 311 311 315 320 320 315 319 324 323 323 321 319 318 316 323 321 323 321 321 318 315 319 318 313 321 315 319 319 320 320 325 328 329 329 330 328 328 328 328
311 311 311 311 311 311 310 314 317 318 317 317 317 315 321 323 323 324 316 319 323 322 327 324 320 316 320 313 316 315 318 322 322 321 324 324 326 328 330 331 330 331 332 332
309 310 311 311 311 310 309 313 318 316 318 310 313 318 318 321 322 322 322 320 321 323 323 320 319 314 315 314 315 316 319 324 323 322 324 325 325 328 330 331 332 330 330 329
308 309 309 310 310 309 311 315 318 320 316 311 312 317 317 319 318 321 322 318 318 319 318 317 315 322 316 316 316 314 320 323 318 318 329 326 328 330 331 330 328 330 330 329
308 309 309 309 309 309 314 319 320 321 322 315 309 316 315 321 321 320 318 318 319 319 318 317 321 318 317 316 315 321 322 324 326 325 330 329 331 333 332 330 331 331 331 332
309 309 309 309 309 312 312 315 318 316 324 317 311 311 317 321 320 321 320 320 320 319 318 316 318 319 316 315 312 319 322 324 326 330 330 328 330 329 332 332 331 328 330 330
309 309 308 308 309 310 312 318 315 317 318 317 311 311 311 321 316 316 322 318 319 320 318 320 315 319 318 311 316 319 323 325 327 330 329 330 331 331 330 330 328 326 326 327
308 308 307 315 316 318 319 312 315 321 318 312 311 309 308 323 321 323 320 321 313 321 314 315 317 312 311 314 318 322 325 325 327 328 329 329 328 328 327 327 326 326 325 326
308 311 314 316 318 310 314 317 317 316 318 317 311 317 311 318 320 316 317 318 313 310 314 320 313 310 318 321 325 329 329 329 328 326 325 327 326 326 326 326 326 326 326 326
311 307 308 311 314 317 315 312 310 312 308 313 315 314 310 317 314 314 321 314 315 307 312 311 311 311 318 327 329 330 330 329 330 331 329 329 328 327 326 326 326 325 326 327
306 303 306 311 315 314 309 308 311 309 309 315 314 317 316 314 317 317 319 313 315 307 318 312 308 317 328 327 327 328 330 329 328 329 328 328 328 328 327 326 326 327 329 330
311 306 308 310 309 299 302 300 305 308 317 321 319 317 319 316 314 315 318 312 309 319 313 309 315 327 326 327 327 327 328 328 328 327 328 328 328 327 326 326 328 329 328 330
306 304 291 300 300 302 307 309 310 312 314 316 316 317 319 317 310 314 312 317 317 308 305 308 317 328 327 328 328 327 327 327 327 327 327 327 327 327 327 328 329 328 326 328
303 305 294 302 310 312 314 314 313 315 315 315 315 318 319 315 312 314 315 310 307 309 308 314 327 329 328 328 328 328 328 328 328 327 326 326 327 326 326 328 329 327 327 327
304 302 301 308 307 308 310 312 312 314 313 317 318 316 314 312 312 309 306 306 305 312 320 326 330 329 329 329 329 330 330 329 328 328 327 327 327 326 326 327 326 327 326 324
301 302 306 306 308 308 311 312 311 313 314 312 317 310 309 315 310 307 314 308 313 321 326 327 331 329 329 331 331 329 329 326 326 327 327 327 327 327 325 323 324 324 324 322
Wind_Speed
17 17 15 14 13 14 5 5 5 5 7 9 10 12 11 1 9 5 4 2 3 5 2 7 12 12 0 7 11 8 9 6 1 21 6 3 8 9 10 7 10 3 7 7
18 18 16 16 14 11 5 3 3 5 5 9 10 11 11 10 9 8 6 5 0 4 4 3 5 4 3 9 8 2 5 10 12 10 4 5 11 9 9 5 3 6 9 9
19 18 18 17 17 12 5 4 6 6 7 7 10 16 16 16 10 4 1 1 6 2 1 1 6 9 4 4 5 9 7 7 13 10 5 4 8 10 11 11 7 9 10 13
21 19 18 19 20 9 6 5 2 1 10 13 12 15 11 17 14 8 8 7 12 6 5 14 7 9 9 11 9 10 9 7 19 10 3 2 3 10 11 11 4 7 9 4
21 20 19 18 18 11 6 5 4 5 4 13 13 10 14 15 15 5 9 12 15 12 7 4 17 17 15 10 18 13 7 9 7 2 4 4 6 5 6 4 1 1 3 7
19 21 20 18 17 17 4 2 3 6 6 12 12 12 12 13 11 6 12 3 6 13 21 19 21 18 18 14 13 17 12 8 10 6 9 4 9 7 5 5 2 2 4 9
20 19 20 17 13 13 5 3 5 5 6 8 14 8 12 9 9 2 4 3 3 7 2 8 20 13 7 8 11 15 13 5 9 6 4 3 5 0 1 2 1 2 4 10
21 19 18 19 14 10 7 4 5 4 7 5 8 12 9 6 6 6 2 4 5 4 10 5 11 8 5 3 7 11 16 9 6 2 3 10 9 5 7 9 8 5 6 10
21 21 19 18 18 12 8 4 4 5 7 4 5 6 6 8 9 7 3 2 2 5 4 4 8 4 5 6 8 10 13 13 13 15 20 15 5 9 4 2 7 7 11 13
20 20 20 19 19 15 8 3 4 5 6 1 4 2 2 1 5 6 7 2 2 1 4 6 9 5 3 3 3 12 14 13 15 11 10 6 5 7 5 7 5 9 11 12
20 20 20 20 19 18 9 4 2 5 5 8 4 3 4 3 5 8 9 2 4 5 6 5 2 10 3 3 3 3 8 12 10 9 12 6 6 8 4 6 7 9 11 10
20 20 20 19 18 17 12 4 0 3 6 8 7 12 13 10 4 3 6 9 6 3 2 2 4 11 7 4 3 1 4 3 5 6 7 4 4 6 4 6 10 10 10 10
19 20 19 19 17 14 9 6 5 5 5 8 7 5 2 7 12 11 4 3 5 4 2 4 4 6 6 5 6 3 2 3 1 4 5 4 4 5 7 10 11 11 10 9
21 20 20 19 16 13 8 5 3 5 5 5 1 2 3 1 5 9 11 3 4 4 2 3 5 4 3 3 2 11 2 6 6 5 3 3 5 9 9 11 11 11 8 6
22 22 21 20 18 13 9 6 4 4 6 6 6 13 2 3 6 7 9 11 8 2 5 5 5 1 4 1 4 5 7 5 6 2 11 7 13 12 13 12 11 10 8 7
23 22 21 19 16 11 5 5 5 5 3 5 5 4 2 1 3 8 10 8 6 5 4 4 2 1 5 5 6 3 6 2 6 4 4 3 14 14 12 12 10 8 7 7
22 22 21 18 12 6 4 7 5 2 3 4 5 3 5 2 4 4 4 7 5 6 5 5 4 4 4 5 9 5 2 3 4 6 11 12 16 13 12 12 12 10 9 7
23 22 20 14 3 5 4 4 2 5 5 4 5 4 4 2 5 5 3 6 7 6 5 2 6 3 3 6 6 7 3 4 7 11 4 13 13 15 14 13 11 9 7 6
24 18 9 5 5 4 5 8 6 4 5 4 3 4 3 1 2 0 5 4 7 3 6 5 4 6 6 3 6 6 6 7 9 9 11 16 16 15 13 11 8 6 5 3
16 6 5 5 4 7 6 5 5 6 5 5 5 1 4 4 2 6 4 4 5 6 5 4 6 10 10 6 2 4 8 6 14 16 16 16 15 13 11 8 6 5 3 3
4 5 3 6 4 5 4 4 5 4 5 5 4 5 7 3 5 4 2 4 4 5 6 6 5 5 8 6 6 8 9 12 11 9 12 13 13 12 10 8 6 4 4 4
8 6 6 5 4 4 5 4 3 5 2 4 3 2 3 1 3 4 4 4 4 5 6 5 5 3 6 8 10 11 12 11 11 13 13 12 11 9 8 7 6 6 5 5
3 4 4 1 3 1 6 7 4 3 2 2 0 1 2 4 5 4 4 6 6 4 5 6 2 7 7 9 12 13 12 14 14 14 12 12 10 7 6 6 6 5 5 5
3 3 4 5 5 4 2 2 4 5 3 3 4 5 3 2 5 4 5 2 3 7 8 8 5 10 11 11 12 14 15 14 14 13 11 10 9 8 6 6 6 6 6 7
3 2 4 5 2 3 1 1 2 2 4 4 5 5 4 4 4 5 2 5 6 5 8 5 7 12 13 13 14 14 13 12 11 10 9 9 8 7 7 7 7 7 8 7
3 4 5 3 5 4 4 1 1 3 5 4 4 5 4 6 5 6 9 6 5 5 2 5 10 13 13 13 13 12 11 10 9 8 8 8 7 7 8 7 7 7 7 8
4 4 5 5 5 5 2 2 3 5 6 4 3 6 6 5 6 10 3 9 4 5 5 5 9 15 15 14 13 11 11 9 9 9 8 8 7 8 8 8 7 7 8 8
Wind_Direction
355 352 349 348 343 333 247 283 218 109 183 201 209 221 216 281 164 170 130 131 86 64 356 254 233 216 293 167 146 184 223 246 168 243 119 302 258 258 215 230 170 246 312 84
357 353 351 349 348 343 308 248 100 153 255 212 194 209 207 231 183 187 169 152 276 98 10 267 306 239 122 163 178 196 217 234 236 193 188 189 219 192 245 270 273 178 285 102
1 355 353 354 351 346 265 262 181 149 219 283 256 196 211 203 208 229 106 332 137 160 110 261 304 301 158 231 226 59 299 270 283 288 159 110 192 189 215 229 207 148 240 121
1 359 355 356 356 349 270 219 226 27 185 213 231 207 201 211 208 207 190 203 227 171 42 359 348 325 260 174 173 174 248 198 262 306 304 222 191 172 187 230 327 276 43 341
360 0 357 352 351 356 256 293 287 173 307 208 214 195 207 221 210 206 202 223 201 153 106 259 268 292 276 255 176 190 182 231 254 133 34 199 179 172 203 218 224 245 294 103
356 360 1 356 357 333 303 46 247 278 141 201 208 202 208 214 224 177 265 322 219 180 170 218 293 300 258 251 185 194 171 216 227 177 6 322 212 166 180 123 198 319 228 90
354 355 360 359 3 3 312 319 290 259 210 214 212 209 219 224 200 185 72 305 17 68 105 288 271 252 226 223 236 200 191 189 346 167 355 246 43 188 292 33 13 144 110 134
351 353 354 358 357 350 300 304 282 298 270 226 191 225 230 227 160 205 263 303 41 99 25 347 297 175 186 139 212 216 203 163 90 13 320 250 244 195 180 195 147 174 124 140
349 350 351 351 354 352 305 278 278 282 299 159 22 220 219 235 189 159 210 246 93 110 84 10 315 326 0 180 139 193 165 144 150 186 232 225 236 139 139 197 173 159 154 156
344 346 348 349 351 352 319 296 255 272 282 53 295 233 347 272 184 157 130 297 69 216 190 148 278 288 255 271 138 176 178 198 218 210 242 123 120 158 168 217 87 155 159 159
340 342 343 345 349 353 337 309 250 305 304 288 274 288 288 169 222 178 131 101 284 197 233 191 317 298 68 246 111 144 191 200 213 230 227 208 154 151 256 85 139 146 150 158
333 336 337 340 345 349 335 275 153 303 261 311 314 286 280 280 315 312 154 221 144 342 152 56 153 293 285 4 335 175 207 360 17 343 38 86 136 55 115 138 138 143 144 153
330 332 332 333 337 341 341 300 320 244 266 264 234 231 152 231 236 248 270 139 117 201 358 161 174 243 316 251 310 299 151 213 65 222 103 101 126 122 135 137 134 139 133 138
327 328 328 328 328 328 316 279 341 277 287 281 111 146 243 26 226 221 239 33 154 98 198 211 215 229 192 301 308 249 25 182 135 101 130 148 163 152 141 132 129 120 118 121
322 321 321 322 321 317 284 245 261 257 300 327 308 308 359 250 212 211 210 221 236 208 199 203 232 190 210 213 235 218 190 157 223 271 157 221 157 161 154 144 134 130 127 124
315 312 313 315 315 313 263 216 170 216 250 277 282 33 224 269 233 211 210 215 221 226 255 234 204 45 266 235 244 279 202 214 346 348 146 116 145 150 150 135 130 127 126 126
310 309 307 309 299 251 274 1 24 343 271 258 280 251 127 210 179 160 177 199 201 233 224 238 259 180 245 269 258 202 256 212 147 134 129 127 145 150 137 130 120 121 110 105
311 308 307 307 195 245 210 135 42 252 262 254 275 268 230 192 194 171 194 172 196 189 238 166 228 146 238 255 261 278 194 183 174 173 221 153 129 134 132 131 135 136 126 127
313 306 309 183 226 214 76 342 286 223 295 296 248 281 65 163 195 41 176 238 195 101 223 227 236 227 229 275 250 219 201 188 165 164 127 136 140 134 133 136 136 132 127 125
302 263 222 169 67 336 253 176 199 195 189 225 261 359 258 298 168 187 187 207 226 205 192 107 235 249 243 248 248 206 180 179 164 149 147 142 137 135 137 136 121 108 121 134
4 349 355 349 320 221 214 208 225 158 220 205 247 277 278 135 277 214 237 205 195 240 176 229 210 236 204 170 176 157 165 163 159 149 143 137 133 135 135 135 129 127 134 106
325 300 288 261 236 214 230 205 167 224 250 152 246 74 241 222 301 258 183 221 195 240 130 215 238 176 124 160 151 150 151 145 138 130 118 118 119 124 127 133 125 114 109 122
190 228 245 286 166 188 222 190 188 209 161 125 294 236 229 175 227 253 227 217 221 123 206 222 246 111 139 145 149 148 141 134 125 119 117 117 116 117 119 122 119 120 120 114
285 298 305 233 179 234 251 280 24 41 290 329 314 273 253 165 203 251 230 145 196 224 226 216 184 154 148 153 150 144 141 136 132 128 128 125 124 116 115 116 135 130 133 120
277 258 245 222 356 243 287 344 250 61 330 309 279 229 253 184 236 210 227 197 233 215 227 216 109 149 154 155 157 147 140 136 134 135 134 127 128 123 124 126 129 129 130 132
255 235 250 217 248 191 193 180 329 30 325 278 235 263 240 218 223 195 214 227 220 186 147 100 137 152 153 156 149 146 138 137 133 135 133 130 134 137 122 128 124 133 133 129
248 225 223 268 293 292 309 310 340 336 282 275 301 240 218 328 228 225 229 231 283 97 124 134 148 155 154 149 135 136 135 135 138 130 133 129 132 130 138 134 140 135 132 133